[[{"header":{"parameterUnit":"m.s-1","parameterCategory":1,"la1":30.2991,"la2":30.254,"lo1":-89.0895,"lo2":-89.0444,"dy":0.0017,"dx":0.0017,"nx":28,"ny":28,"refTime":"2024-08-12T21:00:00:Z","depth":0,"parameterNumber":2,"parameterNumberName":"U-component_of_WINDS"},"data":[0,0,0,0,0,0,0,0,0,0,0,0,0,0,0,0,0,0,0,0,0,0,0,0,0,0,0,0,0,0,0,0,0,0,0,0,0,0,0,0,0,0,0,0,0,0,0,0,0,0,0,0,0,0,0,0,0,0,2.3864,2.3863,0,2.3861,2.3861,2.3861,2.3799,2.3798,2.3796,2.3794,2.3793,2.3795,2.3796,0,0,0,0,0,0,0,0,0,0,0,0,0,2.3818,2.3819,2.3864,2.3863,2.3863,2.3861,2.3861,2.3861,2.3799,2.3798,2.3796,2.3794,2.3793,2.3794,2.3796,0,0,0,0,0,0,0,0,0,0,0,0,0,2.3829,2.3819,2.3864,2.3832,2.383,2.3861,2.3861,2.3861,2.38,2.3797,2.3795,2.3793,2.3792,2.3794,2.3796,2.3858,0,0,2.3803,2.3804,0,0,0,0,0,0,0,0,2.3828,2.3831,2.3837,2.3835,2.3832,2.3828,2.3844,2.386,2.38,2.3811,2.3794,2.3792,2.3807,2.3808,2.3812,2.3858,2.3858,2.3803,2.3805,2.3806,2.3806,0,0,0,0,0,0,0,2.3828,2.383,2.3863,2.3837,2.3834,2.382,2.3819,2.3847,2.3823,2.381,2.3806,2.3806,2.3805,2.3811,2.3812,2.3858,2.3803,2.3805,2.3806,2.3807,2.3956,2.3959,0,0,0,0,0,0,2.3831,2.383,2.3863,2.3862,2.3824,2.3822,2.3821,2.3832,2.3822,2.3818,2.3808,2.3803,2.3808,2.3809,2.3812,2.3885,2.3806,2.3808,2.3809,2.3954,2.3957,2.396,0,0,0,0,0,0,2.383,2.3834,2.3863,2.3845,2.3848,2.3826,2.3838,2.3833,2.3838,2.3821,2.3816,2.3818,2.3806,2.3809,2.3847,2.3884,2.3809,2.3811,2.3951,2.3955,2.3958,2.4031,0,0,0,0,0,0,2.3829,2.3834,2.3857,2.3846,2.3849,2.3898,2.384,2.3834,2.3842,2.3836,2.3829,2.3825,2.3804,2.3845,2.385,2.3885,2.3812,2.3947,2.3952,2.3957,2.4025,2.4036,2.4046,0,0,0,0,0,2.3828,2.3877,2.3858,2.3862,2.3876,2.39,2.3902,2.3876,2.3845,2.3868,2.3857,2.3826,2.3879,2.3849,2.3854,2.3891,2.3945,2.3951,2.3957,2.402,2.4034,2.4046,0,0,0,0,0,0,2.3892,2.3874,2.3854,2.39,2.3902,2.3889,2.3917,2.3892,2.3902,2.3896,2.3864,2.3863,2.3908,2.3903,2.387,2.3952,2.3907,2.3914,2.3953,2.3966,2.3977,2.3977,2.3814,0,0,0,0,0,2.3911,2.3931,2.3916,2.3959,2.3961,2.3939,2.3948,2.3929,2.3929,2.393,2.3921,2.3924,2.3941,2.3953,2.3968,2.4024,2.4023,2.4052,2.4063,2.4072,2.4079,2.4111,2.4124,2.3979,2.3979,2.3979,0,0,2.3952,2.3945,2.3959,2.3971,2.397,2.3993,2.394,2.3966,2.3983,2.3934,2.397,2.3965,2.3965,2.4014,2.4034,2.4011,2.4119,2.408,2.4087,2.4089,2.4118,2.4132,2.4144,2.3983,2.3983,2.3982,0,0,2.4038,2.4034,2.407,2.4071,2.407,2.4056,2.4065,2.4057,2.4051,2.4088,2.4052,2.4073,2.4103,2.4105,2.4111,2.4201,2.4173,2.4207,2.4264,2.4295,2.4306,2.4316,2.435,2.4363,2.4214,2.4214,2.4214,0,2.4088,2.412,2.4092,2.4121,2.4129,2.4086,2.4124,2.4126,2.413,2.4137,2.4111,2.415,2.4147,2.4197,2.4219,2.4224,2.4235,2.4207,2.4307,2.4317,2.4326,2.4358,2.437,2.4218,2.4218,2.4217,2.4217,0,2.4184,2.4207,2.4237,2.4243,2.4253,2.4287,2.4265,2.4279,2.426,2.4249,2.4288,2.4284,2.4298,2.4308,2.4289,2.4356,2.4342,2.4312,2.4266,2.4344,2.4374,2.4386,2.4224,2.4223,2.4221,2.422,0,0,2.4308,2.43,2.4312,2.4315,2.4313,2.4331,2.4363,2.4378,2.4392,2.4397,2.4424,2.4452,2.4426,2.4432,2.4413,2.444,2.4515,2.4407,2.4406,2.4428,2.4591,2.4614,2.4629,2.4496,2.4498,2.45,2.4591,0,2.4393,2.4447,2.4424,2.4481,2.4504,2.4465,2.4493,2.4496,2.4488,2.4506,2.4497,2.4518,2.448,2.4484,2.4509,2.45,2.4547,2.4493,2.4523,2.4524,2.4525,2.4644,2.4668,2.4754,2.4603,2.4605,2.4606,0,2.4497,2.4508,2.4568,2.4564,2.4573,2.4599,2.4611,2.4629,2.4632,2.4624,2.4633,2.4609,2.4642,2.4596,2.4643,2.4607,2.4618,2.4616,2.4619,2.4621,2.457,2.4651,2.4781,2.4795,2.4624,2.4622,2.4621,0,2.4585,2.4614,2.4654,2.4658,2.4654,2.4674,2.4673,2.4673,2.4685,2.4696,2.4703,2.4719,2.4727,2.4741,2.4722,2.469,2.4772,2.4724,2.4768,2.4768,2.4787,2.4786,2.4922,2.4793,2.4792,2.4792,2.4792,0,2.4682,2.472,2.4693,2.4718,2.4761,2.4735,2.4779,2.4774,2.4775,2.4799,2.4767,2.479,2.4764,2.4785,2.4771,2.4813,2.4817,2.4812,2.4808,2.4816,2.4817,2.4823,2.4817,2.4795,2.4795,2.4794,2.4793,0,2.4786,2.477,2.4811,2.4805,2.4804,2.4836,2.4831,2.4855,2.4844,2.4876,2.4882,2.4866,2.489,2.4873,2.4897,2.4887,2.4943,2.493,2.4942,2.4939,2.4984,2.4981,2.513,2.5149,2.5006,2.5008,2.5009,0,2.485,2.4878,2.4876,2.489,2.4891,2.4914,2.4926,2.4902,2.4916,2.4923,2.4947,2.4968,2.4984,2.5024,2.5016,2.5035,2.5023,2.5074,2.5025,2.5033,2.5025,2.5024,2.5028,2.5084,2.5085,2.5087,2.5088,0,2.4965,2.4956,2.4973,2.4989,2.5004,2.5016,2.5024,2.5038,2.5014,2.5032,2.5056,2.5069,2.5094,2.5116,2.5132,2.5133,2.5108,2.5103,2.5115,2.5123,2.513,2.5129,2.497,2.51,2.5099,2.5098,2.5097,2.5097,2.5051,2.5076,2.5079,2.5101,2.5105,2.5115,2.5137,2.5131,2.5151,2.5169,2.5155,2.5185,2.5189,2.5208,2.5212,2.5236,2.5216,2.5232,2.5236,2.5241,2.5248,2.5125,2.5239,2.5239,2.5238,2.5238,2.5238,0,2.5166,2.5167,2.5187,2.5201,2.5219,2.5193,2.5202,2.5219,2.5246,2.5252,2.5269,2.5299,2.5321,2.5315,2.5336,2.5356,2.5345,2.5363,2.5361,2.5362,2.5264,2.5253,2.5371,2.5371,2.5371,2.5371,2.5371,2.5371,2.5228,2.527,2.5262,2.5306,2.5306,2.5335,2.5343,2.5352,2.5358,2.5392,2.5411,2.5407,2.5409,2.543,2.545,2.5448,2.5458,2.548,2.5474,2.5382,2.5369,2.5356,2.5346,2.5482,2.5482,2.557,2.5571,2.5571]},{"header":{"parameterUnit":"m.s-1","parameterCategory":1,"la1":30.2991,"la2":30.254,"lo1":-89.0895,"lo2":-89.0444,"dy":0.0017,"dx":0.0017,"nx":28,"ny":28,"refTime":"2024-08-12T21:00:00:Z","depth":0,"parameterNumber":3,"parameterNumberName":"V-component_of_WINDS"},"data":[0,0,0,0,0,0,0,0,0,0,0,0,0,0,0,0,0,0,0,0,0,0,0,0,0,0,0,0,0,0,0,0,0,0,0,0,0,0,0,0,0,0,0,0,0,0,0,0,0,0,0,0,0,0,0,0,0,0,-2.3169,-2.3169,0,-2.32,-2.32,-2.3201,-2.3193,-2.3192,-2.3191,-2.3191,-2.3222,-2.3223,-2.3224,0,0,0,0,0,0,0,0,0,0,0,0,0,-2.3103,-2.3104,-2.3169,-2.3169,-2.317,-2.32,-2.32,-2.3201,-2.3193,-2.3192,-2.3191,-2.3191,-2.3221,-2.3223,-2.3225,0,0,0,0,0,0,0,0,0,0,0,0,0,-2.3132,-2.3104,-2.3169,-2.3169,-2.317,-2.32,-2.3201,-2.3201,-2.3193,-2.3192,-2.3191,-2.319,-2.3221,-2.3223,-2.3225,-2.3256,0,0,-2.3231,-2.3232,0,0,0,0,0,0,0,0,-2.3131,-2.3135,-2.3169,-2.3169,-2.317,-2.3192,-2.3188,-2.3219,-2.3193,-2.3184,-2.3191,-2.319,-2.3212,-2.3215,-2.3223,-2.3258,-2.3259,-2.3231,-2.3233,-2.3234,-2.3234,0,0,0,0,0,0,0,-2.3129,-2.3133,-2.3181,-2.3169,-2.317,-2.3168,-2.3171,-2.3194,-2.3203,-2.3185,-2.3184,-2.3188,-2.3212,-2.3221,-2.3224,-2.3259,-2.3231,-2.3233,-2.3234,-2.3235,-2.3324,-2.3325,0,0,0,0,0,0,-2.3126,-2.3132,-2.318,-2.3182,-2.3148,-2.317,-2.3174,-2.3185,-2.3203,-2.3204,-2.3189,-2.3188,-2.3218,-2.3221,-2.3225,-2.3264,-2.3234,-2.3236,-2.3237,-2.3323,-2.3325,-2.3326,0,0,0,0,0,0,-2.3125,-2.3131,-2.3179,-2.3157,-2.3163,-2.3172,-2.3186,-2.3187,-2.3195,-2.3206,-2.3207,-2.3196,-2.3217,-2.3222,-2.3249,-2.3265,-2.3236,-2.3238,-2.3322,-2.3324,-2.3325,-2.3343,0,0,0,0,0,0,-2.3123,-2.313,-2.3142,-2.3157,-2.3164,-2.3203,-2.3186,-2.3188,-2.3199,-2.3198,-2.3213,-2.3215,-2.3217,-2.3246,-2.3251,-2.3268,-2.324,-2.3321,-2.3323,-2.3325,-2.3341,-2.3345,-2.3348,0,0,0,0,0,-2.3121,-2.3145,-2.3142,-2.3148,-2.3179,-2.3204,-2.3207,-2.321,-2.32,-2.3212,-2.322,-2.3214,-2.3263,-2.3249,-2.3255,-2.3272,-2.332,-2.3322,-2.3325,-2.3339,-2.3344,-2.3348,0,0,0,0,0,0,-2.313,-2.3147,-2.3144,-2.3174,-2.3188,-2.3202,-2.3217,-2.3215,-2.3231,-2.3229,-2.3231,-2.3235,-2.3263,-2.327,-2.3255,-2.3305,-2.329,-2.3293,-2.3299,-2.3304,-2.3307,-2.3305,-2.3242,0,0,0,0,0,-2.3136,-2.3154,-2.3168,-2.3193,-2.32,-2.3208,-2.3218,-2.3219,-2.3233,-2.3239,-2.3248,-2.3262,-2.328,-2.3292,-2.331,-2.3342,-2.3346,-2.3357,-2.3361,-2.3364,-2.3367,-2.3387,-2.3392,-2.3334,-2.3334,-2.3334,0,0,-2.3147,-2.3159,-2.317,-2.3195,-2.3206,-2.3226,-2.3212,-2.3233,-2.3248,-2.3242,-2.3269,-2.3276,-2.3292,-2.3323,-2.3336,-2.3329,-2.3384,-2.3367,-2.3369,-2.3371,-2.339,-2.3396,-2.34,-2.3336,-2.3335,-2.3335,0,0,-2.3178,-2.3188,-2.3211,-2.3223,-2.324,-2.3245,-2.3251,-2.3267,-2.3272,-2.3299,-2.3296,-2.3313,-2.3345,-2.3357,-2.3367,-2.3406,-2.3402,-2.3412,-2.3431,-2.345,-2.3455,-2.3459,-2.3475,-2.348,-2.3415,-2.3415,-2.3415,0,-2.319,-2.322,-2.3223,-2.3246,-2.3258,-2.3254,-2.3278,-2.3289,-2.331,-2.3319,-2.3311,-2.3352,-2.3362,-2.3396,-2.3406,-2.3414,-2.3421,-2.341,-2.3454,-2.3458,-2.3462,-2.3477,-2.3483,-2.3416,-2.3416,-2.3416,-2.3416,0,-2.3235,-2.3256,-2.3273,-2.3295,-2.3309,-2.3331,-2.3339,-2.3352,-2.3353,-2.336,-2.3389,-2.3401,-2.3422,-2.343,-2.343,-2.3466,-2.3461,-2.3454,-2.3439,-2.3469,-2.3483,-2.3489,-2.3418,-2.3417,-2.3417,-2.3417,0,0,-2.3272,-2.3297,-2.3304,-2.3315,-2.3334,-2.3351,-2.3374,-2.3396,-2.3408,-2.3424,-2.3444,-2.3472,-2.3466,-2.3478,-2.348,-2.3496,-2.3529,-2.3487,-2.3488,-2.3496,-2.3571,-2.3577,-2.3583,-2.3527,-2.3528,-2.3529,-2.357,0,-2.3306,-2.3348,-2.3352,-2.339,-2.341,-2.3409,-2.3429,-2.3444,-2.3452,-2.347,-2.3478,-2.3499,-2.3488,-2.3496,-2.3512,-2.3521,-2.3544,-2.3518,-2.3547,-2.3547,-2.3543,-2.359,-2.3596,-2.3635,-2.3575,-2.3576,-2.3577,0,-2.3351,-2.3369,-2.3409,-2.3428,-2.3437,-2.3456,-2.3477,-2.3495,-2.3512,-2.3516,-2.3531,-2.3531,-2.3556,-2.3541,-2.3576,-2.3559,-2.3571,-2.3577,-2.3579,-2.3582,-2.3564,-2.3596,-2.3647,-2.3653,-2.3585,-2.3585,-2.3584,0,-2.3375,-2.341,-2.3439,-2.3449,-2.3471,-2.3485,-2.3495,-2.3511,-2.3525,-2.3543,-2.3552,-2.3574,-2.3585,-2.3602,-2.3608,-2.3596,-2.3645,-2.3629,-2.365,-2.365,-2.366,-2.3659,-2.3715,-2.3666,-2.3666,-2.3666,-2.3666,0,-2.3413,-2.3438,-2.3451,-2.3469,-2.3497,-2.3503,-2.3531,-2.354,-2.3556,-2.3576,-2.3575,-2.3594,-2.3601,-2.3622,-2.3627,-2.3657,-2.3662,-2.3667,-2.3668,-2.3667,-2.3667,-2.3675,-2.3673,-2.3668,-2.3667,-2.3667,-2.3667,0,-2.3445,-2.3455,-2.3487,-2.3506,-2.3512,-2.3532,-2.3549,-2.3567,-2.3575,-2.3601,-2.3607,-2.362,-2.3644,-2.3652,-2.3681,-2.3685,-2.372,-2.3718,-2.3715,-2.3715,-2.3736,-2.3735,-2.38,-2.3809,-2.3753,-2.3754,-2.3754,0,-2.3469,-2.3489,-2.3511,-2.3525,-2.3536,-2.3558,-2.3573,-2.358,-2.3595,-2.3618,-2.3633,-2.3658,-2.3678,-2.3717,-2.3729,-2.3752,-2.3751,-2.3773,-2.3755,-2.3754,-2.3753,-2.3752,-2.3755,-2.3776,-2.3777,-2.3777,-2.3777,0,-2.3511,-2.3516,-2.3537,-2.356,-2.3578,-2.3596,-2.3614,-2.3626,-2.3636,-2.3653,-2.3679,-2.3694,-2.3725,-2.375,-2.3774,-2.3785,-2.3783,-2.3783,-2.3789,-2.3789,-2.3787,-2.379,-2.3725,-2.3781,-2.3781,-2.3781,-2.3781,-2.378,-2.3541,-2.3559,-2.3579,-2.3603,-2.3617,-2.3635,-2.3653,-2.3665,-2.3686,-2.3713,-2.3715,-2.3743,-2.3762,-2.3795,-2.3807,-2.3829,-2.3823,-2.3832,-2.3834,-2.3837,-2.3839,-2.3783,-2.3833,-2.3833,-2.3833,-2.3833,-2.3833,0,-2.3585,-2.3598,-2.362,-2.3646,-2.3665,-2.3663,-2.3684,-2.37,-2.3725,-2.3743,-2.3763,-2.3794,-2.3819,-2.3833,-2.3858,-2.3874,-2.3874,-2.388,-2.388,-2.3883,-2.3842,-2.3835,-2.388,-2.388,-2.388,-2.388,-2.388,-2.388,-2.3609,-2.3641,-2.3648,-2.3687,-2.37,-2.3728,-2.374,-2.3757,-2.3771,-2.3806,-2.3827,-2.3837,-2.3854,-2.3881,-2.3904,-2.3908,-2.3917,-2.3925,-2.3928,-2.389,-2.3885,-2.388,-2.3874,-2.3926,-2.3926,-2.3967,-2.3967,-2.3967]}]]